Location: Unspecified
(0.0000°N, 0.0000°E)
Time: 11:44:32
(UTC+01:00)

Cosmos 1833 Rocket - Visible Passes

Search period start: 11 February 2016 00:00
Search period end: 21 February 2016 00:00
Orbit: 832 x 841 km, 71.0° (Epoch: 10 February)

Date Brightness Start Highest point End Pass type
(mag) Time Alt. Az. Time Alt. Az. Time Alt. Az.
15 Feb 5.0 22:00:01 10° SSW 22:01:13 17° SW 22:01:13 17° SW visible
16 Feb 4.4 21:43:18 10° SSW 21:45:50 27° SW 21:45:50 27° SW visible
17 Feb 3.5 21:26:35 10° SSW 21:30:35 46° SW 21:30:35 46° SW visible
18 Feb 2.7 21:09:54 10° SSW 21:15:28 72° WNW 21:15:30 72° WNW visible
19 Feb 2.6 20:53:13 10° SSW 20:58:50 81° WNW 21:00:35 46° N visible
20 Feb 2.6 20:36:33 10° SSW 20:42:10 90° NW 20:45:52 22° NNE visible
